Погода в Шилке

Хотите узнать прогноз погоды в Шилке? Тогда Вам сюда: Погода в Шилке

Поиск расширенной информации на нашем сайте:

Полезная информация:

Новости сайта



02.01.2020
Опубликован Долгосрочный прогноз погоды по городам России и ближнего зарубежья на январь 2020 года.
Карты: Прогноз на январь и февраль 2020 года, Сравнение прогнозируемой аномалии приземной температуры воздуха на январь 2020 года по разным моделям.




Погода в Шилке - сегодня

Время (UTC), дата Ветер
(°,м/с) 
Видим.   Явления Облачность Т
(°С)
Тd
(°С)
f(%) Тe
(°С)
Pmin
(гПа)
dP
(гПа)
Po
(мм)
O2
(г/м3)
Тmin Tmax R s Состояние
почвы
21 23.11.20 220 (ЮЗ) 50000 м    8/0 средняя, верхняя 
[Ac trans|Ci fib]
-3 -6.3 78 -6  1020.8  0.3  710  290           
00 24.11.20 210 (ЮЗ) 20000 м    10/0 средняя 
[Ac As]
-3.6 -7 77 -5  1022  711  291  -4.6      равномерный
сухой снег
100% 
03 24.11.20 340 (С) 20000 м    5/0 средняя 
[Ac trans]
-1.8 -9.5 56 -5  1023.2  1.5  712  290           
06 24.11.20 020 (С) 20000 м    6/3 1000 м средняя, верхняя 
[Cu med, cong|Ac cuf|Ci sp]
-0.8 -12.3 41 -3  1023.6  0.7  713  289           
09 24.11.20 010 (С) н/о    н/о 
-9.3 -15 63 -13  1027.7  1.5  714  299           
12 24.11.20 300 (СЗ) 50000 м    6/0 верхняя 
[Ci sp]
-8.7 -15.8 56 -10  1029.1  1.5  715  299    -0.5       
15 24.11.20 310 (СЗ) н/о    н/о 
-10.2 -17.4 56 -10  1031  1.3  716  301           
18 24.11.20 330 (СЗ) 50000 м    4/0 верхняя 
[Ci sp]
-11.8 -17.2 64 -14  1032.8  1.2  717  303           
21 24.11.20 310 (СЗ) 50000 м    3/0 верхняя 
[Ci sp]
-13.4 -19.1 62 -18  1035  1.6  718  306           
00 25.11.20 320 (СЗ) 20000 м    3/0 верхняя 
[Ci fib]
-15.6 -20.2 68 -19  1037.4  1.6  719  309  -16.3      равномерный
сухой снег
100% 
03 25.11.20 010 (С) 20000 м    ясно 
-8.6 -19.7 40 -12  1036.9  1.5  720  301           
06 25.11.20 350 (С) 5{11}  20000 м    1/0 верхняя 
[Ci fib]
-7.2 -21 32 -11  1036.3  -0.1  720  300           
09 25.11.20 230 (ЮЗ) 50000 м    ясно 
-11.3 -21.4 43 -11  1038.5  0.9  721  304           
12 25.11.20 240 (ЮЗ) 50000 м    ясно 
-14.4 -21.9 53 -19  1040.1  0.6  721  308    -7.1       
15 25.11.20 230 (ЮЗ) 50000 м    ясно 
-16.7 -22.5 61 -22  1041.3  0.5  722  311           
18 25.11.20 240 (ЮЗ) 50000 м    3/0 верхняя 
[Ci fib]
-18 -23.1 64 -22  1041.7  0.1  722  313           
21 25.11.20 250 (З) 50000 м    3/0 верхняя 
[Ci fib]
-19.7 -23.6 71 -25  1041.9  -0.3  721  315           
00 26.11.20 270 (З) 20000 м    ясно 
-21.5 -24.9 74 -26  1043.3  0.8  722  317  -21.9      равномерный
сухой снег
100% 
03 26.11.20 250 (З) 50000 м    4/0 верхняя 
[Ci fib]
-15.3 -21.2 61 -19  1041.6  0.3  722  310           
06 26.11.20 230 (ЮЗ) 20000 м    ясно 
-10.3 -19.6 46 -14  1038.6  -1.3  721  303           
09 26.11.20 230 (ЮЗ) 50000 м    ясно 
-13.3 -20.2 56 -17  1039.9  0.4  722  307           
12 26.11.20 260 (З) 50000 м    3/0 верхняя 
[Ci fib]
-15.9 -20.9 65 -20  1041.5  0.7  722  310    -10       
15 26.11.20 270 (З) 50000 м    3/0 верхняя 
[Ci fib]
-18.5 -22.7 69 -24  1042.3  722  314           
18 26.11.20 250 (З) 50000 м    4/0 верхняя 
[Ci fib]
-19.4 -22.8 74 -25  1042.9  0.3  722  315           
21 26.11.20 260 (З) 50000 м    3/0 верхняя 
[Ci fib]
-21.3 -24.1 78 -27  1043.1  -0.4  722  317           
Время (UTC), дата Ветер
(°,м/с) 
Видим.   Явления Облачность Т
(°С)
Тd
(°С)
f(%) Тe
(°С)
Pmin
(гПа)
dP
(гПа)
Po
(мм)
O2
(г/м3)
Тmin Tmax R s Состояние
почвы

Для получения пояснительной информации подведите курсор к названию столбца.

ПОГОДА в Шилке - архив

Всё, что Вы хотите узнать о погоде в Шилке - удобно и подробно!

Выберите нужную дату (начиная с 1 января 2019* года) и нажмите кнопку "Найти".
Будут отображены архивные сводки погоды по пункту Шилка, начиная с указанной даты.


Отображать данные в формате CSV (для использования в таблицах Excel)


Внимание! Наш архив погоды предназначен исключительно для личного некоммерческого использования в познавательных целях. Если Вам необходимы официальные справки о состоянии погоды (для производственных, юридических, коммерческих и т.п. целей), обращайтесь в органы Росгидромета.

*Примечание: данная дата относится к архиву по метеостанциям СССР (Россия, СНГ, Балтия).
Архив по метеостанциям Зарубежной Европы и Азии (кроме Китая) хранится 10 дней, по другим регионам земного шара (Китай, Африка, Америка, Австралия, Океания) - 1 день.

Шилка - район местоположения метеостанции


Название, широта, долгота, высота метеостанции:
Шилка 51.9°ш. 116°д. 597 м над ур. моря [Российская Федерация]

Дополнительная информация

В oтличие oт бoльшинства пoгoдных сайтoв мы публикуем пoдрoбную метеoинфoрмацию в детальнoм прoфессиoнальнoм фoрмате.

Характеристики температуры и влажнoсти вoздуха измеряются на высoте 2 м в тени вдали oт зданий и деревьев.
Скoрoсть ветра измеряется на высoте 10 м (на урoвне рoста челoвека скoрoсть ветра ниже в 1.5-2 раза). Если метеoстанция нахoдится в гoрoде или в лесу, тo скoрoсть ветра занижена на 2-4 м/с пo сравнению с oткрытым местoм. Скoрoсть ветра над акватoриями крупных рек и oзёр, а также на вершинах хoлмoв на 2-5 м/с выше, чем в oбычных услoвиях.
Атмoсфернoе давление в разных тoчках местнoсти мoжет значительнo oтличаться oт давления на метеoстанции, в зависимoсти oт услoвий рельефа (при пoдъёме на 10 м давление пoнижается примернo на 1 мм рт.ст.).